Location: Cincinnati Observatory Center
(39.1389°N, 84.4225°W)
Time: 00:21:02
(UTC-04:00)

HST - Visible Passes

Search period start: 02 October 2014 00:00
Search period end: 12 October 2014 00:00
Orbit: 547 x 551 km, 28.5° (Epoch: 01 October)

Date Brightness Start Highest point End Pass type
(mag) Time Alt. Az. Time Alt. Az. Time Alt. Az.
06 Oct 3.4 06:00:39 10° S 06:01:41 11° SSE 06:02:42 10° SSE visible
07 Oct 3.2 05:53:31 12° S 05:54:23 13° SSE 05:56:17 10° SE visible
08 Oct 3.0 05:46:54 15° S 05:47:06 15° SSE 05:49:27 10° SE visible
09 Oct 3.0 05:40:15 16° SSE 05:40:15 16° SSE 05:42:28 10° SE visible
10 Oct 3.0 05:33:34 16° SSE 05:33:34 16° SSE 05:35:22 10° SE visible
10 Oct 2.9 07:10:33 10° SW 07:13:19 17° S 07:16:05 10° SE visible
11 Oct 3.2 05:26:53 15° SSE 05:26:53 15° SSE 05:28:11 10° SE visible
11 Oct 2.9 07:03:28 10° SW 07:06:02 16° S 07:08:35 10° SSE visible
